Time,TemperatureF,DewpointF,PressureIn,WindDirection,WindDirectionDegrees,WindSpeedMPH,WindSpeedGustMPH,Humidity,HourlyPrecipIn,Conditions,Clouds,dailyrainin,SoftwareType,DateUTC
2013-07-17 00:01:00,72.7,45.6,26.95,ESE,120,0.0,0.0,38,0.00,CLR,,0.00,WeatherDisplay:10.37,2013-07-17 04:01:00,
2013-07-17 00:02:00,72.7,45.6,26.95,ESE,120,0.0,0.0,38,0.00,CLR,,0.00,WeatherDisplay:10.37,2013-07-17 04:02:00,
2013-07-17 00:07:00,72.5,46.1,26.95,ESE,120,0.0,0.0,39,0.00,CLR,,0.00,WeatherDisplay:10.37,2013-07-17 04:07:00,
2013-07-17 00:12:00,72.5,46.1,26.95,ESE,120,0.0,0.0,39,0.00,CLR,,0.00,WeatherDisplay:10.37,2013-07-17 04:12:00,
2013-07-17 00:17:00,72.3,46.0,26.95,ESE,120,0.0,0.0,39,0.00,CLR,,0.00,WeatherDisplay:10.37,2013-07-17 04:17:00,
2013-07-17 00:22:00,72.3,46.0,26.95,ESE,120,0.0,0.0,39,0.00,CLR,,0.00,WeatherDisplay:10.37,2013-07-17 04:22:00,
2013-07-17 00:27:00,72.1,45.8,26.95,ESE,120,0.0,0.0,39,0.00,CLR,,0.00,WeatherDisplay:10.37,2013-07-17 04:27:00,
2013-07-17 00:32:00,72.0,46.3,26.95,ESE,120,0.0,0.0,40,0.00,CLR,,0.00,WeatherDisplay:10.37,2013-07-17 04:32:00,
2013-07-17 00:37:00,71.8,46.2,26.95,ESE,120,0.0,0.0,40,0.00,CLR,,0.00,WeatherDisplay:10.37,2013-07-17 04:37:00,
2013-07-17 00:42:00,71.8,46.8,26.95,ESE,120,0.0,0.0,41,0.00,CLR,,0.00,WeatherDisplay:10.37,2013-07-17 04:42:00,
2013-07-17 00:47:00,71.8,46.8,26.95,ESE,120,0.0,0.0,41,0.00,CLR,,0.00,WeatherDisplay:10.37,2013-07-17 04:47:00,
2013-07-17 00:52:00,71.6,47.3,26.95,ESE,120,0.0,0.0,42,0.00,CLR,,0.00,WeatherDisplay:10.37,2013-07-17 04:52:00,
2013-07-17 00:55:00,71.6,47.3,26.95,ESE,120,0.0,0.0,42,0.00,CLR,,0.00,WeatherDisplay:10.37,2013-07-17 04:55:00,
2013-07-17 00:59:00,71.6,47.3,26.95,ESE,120,0.0,0.0,42,0.00,CLR,,0.00,WeatherDisplay:10.37,2013-07-17 04:59:00,
2013-07-17 01:04:00,71.4,47.1,26.95,ESE,120,0.0,0.0,42,0.00,CLR,,0.00,WeatherDisplay:10.37,2013-07-17 05:04:00,
2013-07-17 01:09:00,71.4,47.1,26.95,ESE,120,0.0,0.0,42,0.00,CLR,,0.00,WeatherDisplay:10.37,2013-07-17 05:09:00,
2013-07-17 01:14:00,71.2,47.6,26.95,ESE,120,0.0,0.0,43,0.00,CLR,,0.00,WeatherDisplay:10.37,2013-07-17 05:14:00,
2013-07-17 01:19:00,71.2,47.6,26.95,ESE,120,0.0,0.0,43,0.00,CLR,,0.00,WeatherDisplay:10.37,2013-07-17 05:19:00,
2013-07-17 01:24:00,71.2,47.6,26.95,ESE,120,0.0,0.0,43,0.00,CLR,,0.00,WeatherDisplay:10.37,2013-07-17 05:24:00,
2013-07-17 01:29:00,71.2,47.6,26.95,ESE,120,0.0,0.0,43,0.00,CLR,,0.00,WeatherDisplay:10.37,2013-07-17 05:29:00,
2013-07-17 01:34:00,71.2,47.6,26.95,ESE,120,0.0,0.0,43,0.00,CLR,,0.00,WeatherDisplay:10.37,2013-07-17 05:34:00,
2013-07-17 01:39:00,71.1,47.4,26.95,ESE,120,0.0,0.0,43,0.00,CLR,,0.00,WeatherDisplay:10.37,2013-07-17 05:39:00,
2013-07-17 01:44:00,71.1,48.0,26.95,ESE,120,0.0,0.0,44,0.00,CLR,,0.00,WeatherDisplay:10.37,2013-07-17 05:44:00,
2013-07-17 01:49:00,70.9,47.9,26.95,ESE,120,0.0,0.0,44,0.00,CLR,,0.00,WeatherDisplay:10.37,2013-07-17 05:49:00,
2013-07-17 01:54:00,70.9,47.9,26.95,ESE,120,0.0,0.0,44,0.00,CLR,,0.00,WeatherDisplay:10.37,2013-07-17 05:54:00,
2013-07-17 01:59:00,70.9,47.9,26.95,ESE,120,0.0,0.0,44,0.00,CLR,,0.00,WeatherDisplay:10.37,2013-07-17 05:59:00,
2013-07-17 02:04:00,70.7,47.7,26.95,ESE,120,0.0,0.0,44,0.00,CLR,,0.00,WeatherDisplay:10.37,2013-07-17 06:04:00,
2013-07-17 02:09:00,70.7,47.7,26.95,ESE,120,0.0,0.0,44,0.00,CLR,,0.00,WeatherDisplay:10.37,2013-07-17 06:09:00,
2013-07-17 02:14:00,70.7,47.7,26.95,ESE,120,0.0,0.0,44,0.00,CLR,,0.00,WeatherDisplay:10.37,2013-07-17 06:14:00,
2013-07-17 02:19:00,70.7,47.7,26.95,ESE,120,0.0,0.0,44,0.00,CLR,,0.00,WeatherDisplay:10.37,2013-07-17 06:19:00,
2013-07-17 02:24:00,70.7,48.3,26.95,ESE,120,0.0,0.0,45,0.00,CLR,,0.00,WeatherDisplay:10.37,2013-07-17 06:24:00,
2013-07-17 02:29:00,70.5,48.1,26.95,ESE,120,0.0,0.0,45,0.00,CLR,,0.00,WeatherDisplay:10.37,2013-07-17 06:29:00,
2013-07-17 02:34:00,70.5,48.1,26.95,ESE,120,0.0,0.0,45,0.00,CLR,,0.00,WeatherDisplay:10.37,2013-07-17 06:34:00,
2013-07-17 02:39:00,70.3,48.0,26.95,ESE,120,0.0,0.0,45,0.00,CLR,,0.00,WeatherDisplay:10.37,2013-07-17 06:39:00,
2013-07-17 02:44:00,70.3,48.0,26.95,ESE,120,0.0,0.0,45,0.00,CLR,,0.00,WeatherDisplay:10.37,2013-07-17 06:44:00,
2013-07-17 02:49:00,70.3,48.0,26.95,ESE,120,0.0,0.0,45,0.00,CLR,,0.00,WeatherDisplay:10.37,2013-07-17 06:49:00,
2013-07-17 02:54:00,70.2,47.8,26.95,ESE,120,0.0,0.0,45,0.00,CLR,,0.00,WeatherDisplay:10.37,2013-07-17 06:54:00,
2013-07-17 02:59:00,70.2,47.8,26.95,ESE,120,0.0,0.0,45,0.00,CLR,,0.00,WeatherDisplay:10.37,2013-07-17 06:59:00,
2013-07-17 03:04:00,70.2,47.8,26.95,ESE,120,0.0,0.0,45,0.00,CLR,,0.00,WeatherDisplay:10.37,2013-07-17 07:04:00,
2013-07-17 03:09:00,70.2,48.4,26.95,ESE,120,0.0,0.0,46,0.00,CLR,,0.00,WeatherDisplay:10.37,2013-07-17 07:09:00,
2013-07-17 03:14:00,70.0,48.2,26.95,ESE,120,0.0,0.0,46,0.00,CLR,,0.00,WeatherDisplay:10.37,2013-07-17 07:14:00,
2013-07-17 03:19:00,70.0,48.2,26.95,ESE,120,0.0,0.0,46,0.00,CLR,,0.00,WeatherDisplay:10.37,2013-07-17 07:19:00,
2013-07-17 03:24:00,70.0,48.2,26.95,ESE,120,0.0,0.0,46,0.00,CLR,,0.00,WeatherDisplay:10.37,2013-07-17 07:24:00,
2013-07-17 03:29:00,69.8,48.1,26.95,ESE,120,0.0,0.0,46,0.00,CLR,,0.00,WeatherDisplay:10.37,2013-07-17 07:29:00,
2013-07-17 03:34:00,69.8,48.1,26.95,ESE,120,0.0,0.0,46,0.00,CLR,,0.00,WeatherDisplay:10.37,2013-07-17 07:34:00,
2013-07-17 03:39:00,69.8,48.1,26.95,ESE,120,0.0,0.0,46,0.00,CLR,,0.00,WeatherDisplay:10.37,2013-07-17 07:39:00,
2013-07-17 03:44:00,69.8,48.1,26.95,ESE,120,0.0,0.0,46,0.00,CLR,,0.00,WeatherDisplay:10.37,2013-07-17 07:44:00,
2013-07-17 03:49:00,69.8,48.1,26.95,ESE,120,0.0,0.0,46,0.00,CLR,,0.00,WeatherDisplay:10.37,2013-07-17 07:49:00,
2013-07-17 03:54:00,69.6,48.5,26.95,ESE,120,0.0,0.0,47,0.00,CLR,,0.00,WeatherDisplay:10.37,2013-07-17 07:54:00,
2013-07-17 03:59:00,69.8,48.1,26.95,ESE,120,0.0,0.0,46,0.00,CLR,,0.00,WeatherDisplay:10.37,2013-07-17 07:59:00,
2013-07-17 04:04:00,69.6,48.5,26.95,ESE,120,0.0,0.0,47,0.00,CLR,,0.00,WeatherDisplay:10.37,2013-07-17 08:04:00,
2013-07-17 04:09:00,69.6,48.5,26.95,ESE,120,0.0,0.0,47,0.00,CLR,,0.00,WeatherDisplay:10.37,2013-07-17 08:09:00,
2013-07-17 04:14:00,69.6,48.5,26.95,ESE,120,0.0,0.0,47,0.00,CLR,,0.00,WeatherDisplay:10.37,2013-07-17 08:14:00,
2013-07-17 04:19:00,69.6,48.5,26.95,ESE,120,0.0,0.0,47,0.00,CLR,,0.00,WeatherDisplay:10.37,2013-07-17 08:19:00,
2013-07-17 04:24:00,69.6,48.5,26.95,ESE,120,0.0,0.0,47,0.00,CLR,,0.00,WeatherDisplay:10.37,2013-07-17 08:24:00,
2013-07-17 04:29:00,69.6,48.5,26.95,ESE,120,0.0,0.0,47,0.00,CLR,,0.00,WeatherDisplay:10.37,2013-07-17 08:29:00,
2013-07-17 04:34:00,69.4,48.3,26.95,ESE,120,0.0,0.0,47,0.00,CLR,,0.00,WeatherDisplay:10.37,2013-07-17 08:34:00,
2013-07-17 04:39:00,69.4,48.9,26.95,ESE,120,0.0,0.0,48,0.00,CLR,,0.00,WeatherDisplay:10.37,2013-07-17 08:39:00,
2013-07-17 04:44:00,69.4,48.9,26.95,ESE,120,0.0,0.0,48,0.00,CLR,,0.00,WeatherDisplay:10.37,2013-07-17 08:44:00,
2013-07-17 04:49:00,69.4,48.9,26.95,ESE,120,0.0,0.0,48,0.00,CLR,,0.00,WeatherDisplay:10.37,2013-07-17 08:49:00,
2013-07-17 04:54:00,69.3,48.7,26.95,ESE,120,0.0,0.0,48,0.00,CLR,,0.00,WeatherDisplay:10.37,2013-07-17 08:54:00,
2013-07-17 04:59:00,69.3,48.7,26.95,ESE,120,0.0,0.0,48,0.00,CLR,,0.00,WeatherDisplay:10.37,2013-07-17 08:59:00,
2013-07-17 05:04:00,69.3,48.7,26.95,ESE,120,0.0,0.0,48,0.00,CLR,,0.00,WeatherDisplay:10.37,2013-07-17 09:04:00,
2013-07-17 05:09:00,69.3,48.7,26.95,ESE,120,0.0,0.0,48,0.00,CLR,,0.00,WeatherDisplay:10.37,2013-07-17 09:09:00,
2013-07-17 05:14:00,69.3,48.7,26.95,ESE,120,0.0,0.0,48,0.00,CLR,,0.00,WeatherDisplay:10.37,2013-07-17 09:14:00,
2013-07-17 05:19:00,69.3,48.7,26.95,ESE,120,0.0,0.0,48,0.00,CLR,,0.00,WeatherDisplay:10.37,2013-07-17 09:19:00,
2013-07-17 05:24:00,69.3,48.7,26.95,ESE,120,0.0,0.0,48,0.00,CLR,,0.00,WeatherDisplay:10.37,2013-07-17 09:24:00,
2013-07-17 05:29:00,69.3,48.7,26.95,ESE,120,0.0,0.0,48,0.00,CLR,,0.00,WeatherDisplay:10.37,2013-07-17 09:29:00,
2013-07-17 05:34:00,69.3,48.7,26.95,ESE,121,0.0,0.0,48,0.00,CLR,,0.00,WeatherDisplay:10.37,2013-07-17 09:34:00,
2013-07-17 05:39:00,69.3,49.3,26.95,ESE,120,0.0,0.0,49,0.00,CLR,,0.00,WeatherDisplay:10.37,2013-07-17 09:39:00,
2013-07-17 05:44:00,69.3,49.3,26.95,ESE,121,0.0,0.0,49,0.00,CLR,,0.00,WeatherDisplay:10.37,2013-07-17 09:44:00,
2013-07-17 05:49:00,69.3,49.3,26.95,ESE,120,0.0,0.0,49,0.00,CLR,,0.00,WeatherDisplay:10.37,2013-07-17 09:49:00,
2013-07-17 05:54:00,69.3,49.3,26.95,ESE,120,0.0,0.0,49,0.00,CLR,,0.00,WeatherDisplay:10.37,2013-07-17 09:54:00,
2013-07-17 05:59:00,69.4,49.4,26.95,ESE,120,0.0,0.0,49,0.00,CLR,,0.00,WeatherDisplay:10.37,2013-07-17 09:59:00,
2013-07-17 06:04:00,69.4,49.4,26.95,ESE,120,0.0,0.0,49,0.00,CLR,,0.00,WeatherDisplay:10.37,2013-07-17 10:04:00,
2013-07-17 06:09:00,69.4,49.4,26.95,ESE,120,0.0,0.0,49,0.00,CLR,,0.00,WeatherDisplay:10.37,2013-07-17 10:09:00,
2013-07-17 06:14:00,69.6,49.6,26.95,ESE,121,0.0,0.0,49,0.00,CLR,,0.00,WeatherDisplay:10.37,2013-07-17 10:14:00,
2013-07-17 06:19:00,69.8,49.8,26.95,ESE,120,0.0,0.0,49,0.00,CLR,,0.00,WeatherDisplay:10.37,2013-07-17 10:19:00,
2013-07-17 06:24:00,70.0,49.9,26.95,ESE,120,0.0,0.0,49,0.00,CLR,,0.00,WeatherDisplay:10.37,2013-07-17 10:24:00,
2013-07-17 06:29:00,70.2,50.1,26.95,ESE,120,0.0,0.0,49,0.00,CLR,,0.00,WeatherDisplay:10.37,2013-07-17 10:29:00,
2013-07-17 06:34:00,70.3,50.3,26.95,ESE,120,0.0,0.0,49,0.00,CLR,,0.00,WeatherDisplay:10.37,2013-07-17 10:34:00,
2013-07-17 06:39:00,70.5,50.4,26.95,ESE,120,0.0,0.0,49,0.00,CLR,,0.00,WeatherDisplay:10.37,2013-07-17 10:39:00,
2013-07-17 06:44:00,70.9,50.8,26.95,ESE,120,0.0,0.0,49,0.00,CLR,,0.00,WeatherDisplay:10.37,2013-07-17 10:44:00,
2013-07-17 06:49:00,71.2,51.1,26.95,ESE,120,0.0,0.0,49,0.00,CLR,,0.00,WeatherDisplay:10.37,2013-07-17 10:49:00,
2013-07-17 06:54:00,71.6,51.4,26.95,ESE,120,0.0,0.0,49,0.00,CLR,,0.00,WeatherDisplay:10.37,2013-07-17 10:54:00,
2013-07-17 06:59:00,72.0,51.8,26.95,ESE,120,0.0,0.0,49,0.00,CLR,,0.00,WeatherDisplay:10.37,2013-07-17 10:59:00,
2013-07-17 07:04:00,72.1,51.4,26.95,ESE,120,0.0,0.0,48,0.00,CLR,,0.00,WeatherDisplay:10.37,2013-07-17 11:04:00,
2013-07-17 07:09:00,72.5,51.7,26.95,ESE,120,0.0,0.0,48,0.00,CLR,,0.00,WeatherDisplay:10.37,2013-07-17 11:09:00,
2013-07-17 07:14:00,72.9,52.0,26.95,ESE,120,0.0,0.0,48,0.00,CLR,,0.00,WeatherDisplay:10.37,2013-07-17 11:14:00,
2013-07-17 07:19:00,73.2,52.3,26.95,ESE,120,0.0,0.0,48,0.00,CLR,,0.00,WeatherDisplay:10.37,2013-07-17 11:19:00,
2013-07-17 07:24:00,73.8,52.3,26.95,ESE,120,0.0,0.0,47,0.00,CLR,,0.00,WeatherDisplay:10.37,2013-07-17 11:24:00,
2013-07-17 07:29:00,73.9,52.4,26.95,ESE,120,0.0,0.0,47,0.00,CLR,,0.00,WeatherDisplay:10.37,2013-07-17 11:29:00,
2013-07-17 07:34:00,74.1,52.0,26.95,ESE,120,0.0,0.0,46,0.00,CLR,,0.00,WeatherDisplay:10.37,2013-07-17 11:34:00,
2013-07-17 07:39:00,74.7,50.7,26.95,ESE,120,0.0,0.0,43,0.00,CLR,,0.00,WeatherDisplay:10.37,2013-07-17 11:39:00,
2013-07-17 07:44:00,75.2,50.5,26.95,ESE,120,0.0,0.0,42,0.00,CLR,,0.00,WeatherDisplay:10.37,2013-07-17 11:44:00,
2013-07-17 07:49:00,75.6,47.5,26.95,ESE,120,0.0,0.0,37,0.00,CLR,,0.00,WeatherDisplay:10.37,2013-07-17 11:49:00,
2013-07-17 07:54:00,76.1,50.7,26.95,ESE,120,0.0,0.0,41,0.00,CLR,,0.00,WeatherDisplay:10.37,2013-07-17 11:54:00,
2013-07-17 07:59:00,76.1,47.9,26.95,ESE,120,0.0,0.0,37,0.00,CLR,,0.00,WeatherDisplay:10.37,2013-07-17 11:59:00,
2013-07-17 08:04:00,76.6,46.9,26.95,ESE,120,0.0,0.0,35,0.00,CLR,,0.00,WeatherDisplay:10.37,2013-07-17 12:04:00,
2013-07-17 08:09:00,77.2,48.2,26.95,ESE,120,0.0,0.0,36,0.00,CLR,,0.00,WeatherDisplay:10.37,2013-07-17 12:09:00,
2013-07-17 08:14:00,77.4,47.6,26.95,ESE,120,0.0,0.0,35,0.00,CLR,,0.00,WeatherDisplay:10.37,2013-07-17 12:14:00,
2013-07-17 08:19:00,77.9,48.0,26.95,ESE,120,0.0,0.0,35,0.00,CLR,,0.00,WeatherDisplay:10.37,2013-07-17 12:19:00,
2013-07-17 08:24:00,78.6,46.3,26.95,ESE,120,0.0,0.0,32,0.00,CLR,,0.00,WeatherDisplay:10.37,2013-07-17 12:24:00,
2013-07-17 08:29:00,81.3,46.9,26.95,ESE,120,0.0,0.0,30,0.00,CLR,,0.00,WeatherDisplay:10.37,2013-07-17 12:29:00,
2013-07-17 08:34:00,81.7,46.3,26.95,ESE,120,0.0,0.0,29,0.00,CLR,,0.00,WeatherDisplay:10.37,2013-07-17 12:34:00,
2013-07-17 08:39:00,80.6,43.5,26.95,ESE,120,0.0,0.0,27,0.00,CLR,,0.00,WeatherDisplay:10.37,2013-07-17 12:39:00,
2013-07-17 08:44:00,80.1,43.1,26.95,ESE,120,2.3,0.0,27,0.00,CLR,,0.00,WeatherDisplay:10.37,2013-07-17 12:44:00,
2013-07-17 08:49:00,80.2,43.2,26.95,ESE,120,0.0,0.0,27,0.00,CLR,,0.00,WeatherDisplay:10.37,2013-07-17 12:49:00,
2013-07-17 08:54:00,80.2,43.2,26.95,ESE,120,2.3,0.0,27,0.00,CLR,,0.00,WeatherDisplay:10.37,2013-07-17 12:54:00,
2013-07-17 08:59:00,80.2,43.2,26.95,ESE,120,0.0,0.0,27,0.00,CLR,,0.00,WeatherDisplay:10.37,2013-07-17 12:59:00,
2013-07-17 09:04:00,80.4,43.4,26.95,ESE,120,0.0,0.0,27,0.00,CLR,,0.00,WeatherDisplay:10.37,2013-07-17 13:04:00,
2013-07-17 09:09:00,80.8,43.7,26.95,ESE,120,0.0,0.0,27,0.00,CLR,,0.00,WeatherDisplay:10.37,2013-07-17 13:09:00,
2013-07-17 09:14:00,81.1,45.9,26.95,ESE,120,0.0,0.0,29,0.00,CLR,,0.00,WeatherDisplay:10.37,2013-07-17 13:14:00,
2013-07-17 09:15:00,81.1,45.9,26.95,ESE,120,0.0,0.0,29,0.00,CLR,,0.00,WeatherDisplay:10.37,2013-07-17 13:15:00,
2013-07-17 09:20:00,81.1,44.0,26.95,ESE,120,0.0,0.0,27,0.00,CLR,,0.00,WeatherDisplay:10.37,2013-07-17 13:20:00,
2013-07-17 09:25:00,81.1,40.9,26.95,SSW,199,0.0,0.0,24,0.00,CLR,,0.00,WeatherDisplay:10.37,2013-07-17 13:25:00,
2013-07-17 09:30:00,81.5,41.2,26.95,NW,315,0.0,0.0,24,0.00,CLR,,0.00,WeatherDisplay:10.37,2013-07-17 13:30:00,
2013-07-17 09:35:00,81.9,44.6,26.95,NW,315,0.0,0.0,27,0.00,CLR,,0.00,WeatherDisplay:10.37,2013-07-17 13:35:00,
2013-07-17 09:40:00,82.2,44.9,26.95,NNE,24,2.3,0.0,27,0.00,CLR,,0.00,WeatherDisplay:10.37,2013-07-17 13:40:00,
2013-07-17 09:45:00,82.6,44.2,26.95,NNE,24,0.0,0.0,26,0.00,CLR,,0.00,WeatherDisplay:10.37,2013-07-17 13:45:00,
2013-07-17 09:50:00,82.8,42.3,26.95,NNE,25,0.0,0.0,24,0.00,CLR,,0.00,WeatherDisplay:10.37,2013-07-17 13:50:00,
2013-07-17 09:55:00,83.1,42.6,26.95,NNE,25,0.0,0.0,24,0.00,CLR,,0.00,WeatherDisplay:10.37,2013-07-17 13:55:00,
2013-07-17 10:00:00,83.7,43.0,26.95,WNW,291,3.5,0.0,24,0.00,CLR,,0.00,WeatherDisplay:10.37,2013-07-17 14:00:00,
2013-07-17 10:05:00,86.5,44.3,26.95,West,259,0.0,0.0,23,0.00,CLR,,0.00,WeatherDisplay:10.37,2013-07-17 14:05:00,
2013-07-17 10:10:00,86.0,43.9,26.95,West,280,0.0,0.0,23,0.00,CLR,,0.00,WeatherDisplay:10.37,2013-07-17 14:10:00,
2013-07-17 10:15:00,84.7,42.8,26.95,NNW,327,2.3,2.3,23,0.00,CLR,,0.00,WeatherDisplay:10.37,2013-07-17 14:15:00,
2013-07-17 10:20:00,84.9,43.0,26.95,West,280,2.3,0.0,23,0.00,CLR,,0.00,WeatherDisplay:10.37,2013-07-17 14:20:00,
2013-07-17 10:25:00,85.1,43.1,26.95,West,280,0.0,0.0,23,0.00,CLR,,0.00,WeatherDisplay:10.37,2013-07-17 14:25:00,
2013-07-17 10:30:00,85.5,43.4,26.95,West,281,2.3,0.0,23,0.00,CLR,,0.00,WeatherDisplay:10.37,2013-07-17 14:30:00,
2013-07-17 10:35:00,86.0,43.9,26.95,WNW,288,2.3,2.3,23,0.00,CLR,,0.00,WeatherDisplay:10.37,2013-07-17 14:35:00,
2013-07-17 10:40:00,86.0,43.9,26.95,NW,326,2.3,0.0,23,0.00,CLR,,0.00,WeatherDisplay:10.37,2013-07-17 14:40:00,
2013-07-17 10:45:00,85.6,43.6,26.95,WSW,257,0.0,0.0,23,0.00,CLR,,0.00,WeatherDisplay:10.37,2013-07-17 14:45:00,
2013-07-17 10:50:00,85.6,43.6,26.95,North,357,2.3,0.0,23,0.00,CLR,,0.00,WeatherDisplay:10.37,2013-07-17 14:50:00,
2013-07-17 10:55:00,85.5,43.4,26.95,WSW,251,2.3,0.0,23,0.00,CLR,,0.00,WeatherDisplay:10.37,2013-07-17 14:55:00,
2013-07-17 11:00:00,85.8,43.7,26.95,NW,318,0.0,0.0,23,0.00,CLR,,0.00,WeatherDisplay:10.37,2013-07-17 15:00:00,
2013-07-17 11:05:00,86.5,44.3,26.95,NNE,23,2.3,0.0,23,0.00,CLR,,0.00,WeatherDisplay:10.37,2013-07-17 15:05:00,
2013-07-17 11:10:00,86.5,44.3,26.95,NW,314,2.3,2.3,23,0.00,CLR,,0.00,WeatherDisplay:10.37,2013-07-17 15:10:00,
2013-07-17 11:15:00,86.9,44.6,26.95,NNW,329,0.0,0.0,23,0.00,CLR,,0.00,WeatherDisplay:10.37,2013-07-17 15:15:00,
2013-07-17 11:20:00,87.1,44.8,26.95,NW,307,3.5,3.5,23,0.00,CLR,,0.00,WeatherDisplay:10.37,2013-07-17 15:20:00,
2013-07-17 11:25:00,87.3,44.9,26.95,North,357,0.0,0.0,23,0.00,CLR,,0.00,WeatherDisplay:10.37,2013-07-17 15:25:00,
2013-07-17 11:30:00,87.6,45.2,26.95,WSW,251,0.0,0.0,23,0.00,CLR,,0.00,WeatherDisplay:10.37,2013-07-17 15:30:00,
2013-07-17 11:35:00,88.0,45.5,26.95,WSW,256,0.0,0.0,23,0.00,CLR,,0.00,WeatherDisplay:10.37,2013-07-17 15:35:00,
2013-07-17 11:40:00,88.2,45.7,26.95,North,357,2.3,0.0,23,0.00,CLR,,0.00,WeatherDisplay:10.37,2013-07-17 15:40:00,
2013-07-17 11:45:00,89.1,46.4,26.95,NW,320,3.5,0.0,23,0.00,CLR,,0.00,WeatherDisplay:10.37,2013-07-17 15:45:00,
2013-07-17 11:50:00,91.6,47.4,26.95,NNW,343,3.5,3.5,22,0.00,CLR,,0.00,WeatherDisplay:10.37,2013-07-17 15:50:00,
2013-07-17 11:55:00,93.2,47.5,26.95,NW,306,3.5,0.0,21,0.00,CLR,,0.00,WeatherDisplay:10.37,2013-07-17 15:55:00,
2013-07-17 12:00:00,95.5,49.4,26.95,WNW,303,3.5,3.5,21,0.00,CLR,,0.00,WeatherDisplay:10.37,2013-07-17 16:00:00,
2013-07-17 12:05:00,97.7,51.2,26.95,NW,306,0.0,0.0,21,0.00,CLR,,0.00,WeatherDisplay:10.37,2013-07-17 16:05:00,
2013-07-17 12:10:00,99.7,51.5,26.95,NW,307,2.3,0.0,20,0.00,CLR,,0.00,WeatherDisplay:10.37,2013-07-17 16:10:00,
2013-07-17 12:15:00,101.5,52.9,26.95,ESE,110,2.3,0.0,20,0.00,CLR,,0.00,WeatherDisplay:10.37,2013-07-17 16:15:00,
2013-07-17 12:20:00,100.0,51.8,26.95,North,353,3.5,3.5,20,0.00,CLR,,0.00,WeatherDisplay:10.37,2013-07-17 16:20:00,
2013-07-17 12:25:00,99.3,51.2,26.95,North,357,3.5,3.5,20,0.00,CLR,,0.00,WeatherDisplay:10.37,2013-07-17 16:25:00,
2013-07-17 12:30:00,99.9,51.6,26.95,NNW,332,2.3,0.0,20,0.00,CLR,,0.00,WeatherDisplay:10.37,2013-07-17 16:30:00,
2013-07-17 12:35:00,99.9,51.6,26.95,NW,308,4.6,4.6,20,0.00,CLR,,0.00,WeatherDisplay:10.37,2013-07-17 16:35:00,
2013-07-17 12:40:00,99.7,51.5,26.95,WNW,292,3.5,3.5,20,0.00,CLR,,0.00,WeatherDisplay:10.37,2013-07-17 16:40:00,
2013-07-17 12:45:00,95.7,49.5,26.95,NE,44,0.0,0.0,21,0.00,CLR,,0.00,WeatherDisplay:10.37,2013-07-17 16:45:00,
2013-07-17 12:50:00,94.5,48.5,26.95,NE,44,0.0,0.0,21,0.00,CLR,,0.00,WeatherDisplay:10.37,2013-07-17 16:50:00,
2013-07-17 12:55:00,94.5,48.5,26.95,NE,44,0.0,0.0,21,0.00,CLR,,0.00,WeatherDisplay:10.37,2013-07-17 16:55:00,
2013-07-17 13:00:00,93.4,47.6,26.95,NW,316,2.3,0.0,21,0.00,CLR,,0.00,WeatherDisplay:10.37,2013-07-17 17:00:00,
2013-07-17 13:05:00,93.2,47.5,26.95,NW,304,2.3,2.3,21,0.00,CLR,,0.00,WeatherDisplay:10.37,2013-07-17 17:05:00,
2013-07-17 13:10:00,95.0,48.9,26.95,West,278,2.3,0.0,21,0.00,CLR,,0.00,WeatherDisplay:10.37,2013-07-17 17:10:00,
2013-07-17 13:15:00,98.4,51.8,26.95,West,266,0.0,0.0,21,0.00,CLR,,0.00,WeatherDisplay:10.37,2013-07-17 17:15:00,
2013-07-17 13:20:00,99.1,51.0,26.95,WNW,291,0.0,0.0,20,0.00,CLR,,0.00,WeatherDisplay:10.37,2013-07-17 17:20:00,
2013-07-17 13:25:00,97.2,50.7,26.95,NW,311,3.5,3.5,21,0.00,CLR,,0.00,WeatherDisplay:10.37,2013-07-17 17:25:00,
2013-07-17 13:30:00,95.0,48.9,26.95,SE,141,2.3,0.0,21,0.00,CLR,,0.00,WeatherDisplay:10.37,2013-07-17 17:30:00,
2013-07-17 13:35:00,93.2,47.5,26.95,NW,315,3.5,0.0,21,0.00,CLR,,0.00,WeatherDisplay:10.37,2013-07-17 17:35:00,
2013-07-17 13:40:00,93.2,47.5,26.95,NE,51,0.0,0.0,21,0.00,CLR,,0.00,WeatherDisplay:10.37,2013-07-17 17:40:00,
2013-07-17 13:45:00,92.5,48.1,26.95,West,266,0.0,0.0,22,0.00,CLR,,0.00,WeatherDisplay:10.37,2013-07-17 17:45:00,
2013-07-17 13:50:00,91.9,43.8,26.95,NW,314,0.0,0.0,19,0.00,CLR,,0.00,WeatherDisplay:10.37,2013-07-17 17:50:00,
2013-07-17 13:55:00,91.9,43.8,26.95,WSW,255,0.0,0.0,19,0.00,CLR,,0.00,WeatherDisplay:10.37,2013-07-17 17:55:00,
2013-07-17 14:00:00,91.9,43.8,26.95,ENE,71,2.3,0.0,19,0.00,CLR,,0.00,WeatherDisplay:10.37,2013-07-17 18:00:00,
2013-07-17 14:05:00,93.0,44.7,26.95,SW,222,2.3,0.0,19,0.00,CLR,,0.00,WeatherDisplay:10.37,2013-07-17 18:05:00,
2013-07-17 14:10:00,92.5,44.2,26.95,NW,317,3.6,0.0,19,0.00,CLR,,0.00,WeatherDisplay:10.37,2013-07-17 18:10:00,
2013-07-17 14:15:00,94.6,48.6,26.95,SSW,200,0.0,0.0,21,0.00,CLR,,0.00,WeatherDisplay:10.37,2013-07-17 18:15:00,
2013-07-17 14:20:00,94.6,48.6,26.95,NW,319,2.3,2.3,21,0.00,CLR,,0.00,WeatherDisplay:10.37,2013-07-17 18:20:00,
2013-07-17 14:25:00,97.3,50.9,26.95,NE,55,2.3,2.3,21,0.00,CLR,,0.00,WeatherDisplay:10.37,2013-07-17 18:25:00,
2013-07-17 14:30:00,98.8,50.7,26.95,NW,310,2.3,0.0,20,0.00,CLR,,0.00,WeatherDisplay:10.37,2013-07-17 18:30:00,
2013-07-17 14:35:00,95.9,49.7,26.95,WNW,294,2.3,0.0,21,0.00,CLR,,0.00,WeatherDisplay:10.37,2013-07-17 18:35:00,
2013-07-17 14:40:00,94.1,48.2,26.95,East,86,3.5,3.5,21,0.00,CLR,,0.00,WeatherDisplay:10.37,2013-07-17 18:40:00,
2013-07-17 14:45:00,93.9,48.1,26.95,WSW,255,3.5,0.0,21,0.00,CLR,,0.00,WeatherDisplay:10.37,2013-07-17 18:45:00,
2013-07-17 14:50:00,93.4,47.6,26.95,NW,313,0.0,0.0,21,0.00,CLR,,0.00,WeatherDisplay:10.37,2013-07-17 18:50:00,
2013-07-17 14:55:00,92.7,48.3,26.95,SSW,198,3.5,3.5,22,0.00,CLR,,0.00,WeatherDisplay:10.37,2013-07-17 18:55:00,
2013-07-17 15:00:00,92.3,44.1,26.95,NW,312,3.5,0.0,19,0.00,CLR,,0.00,WeatherDisplay:10.37,2013-07-17 19:00:00,
2013-07-17 15:05:00,92.8,48.4,26.95,ESE,115,0.0,0.0,22,0.00,CLR,,0.00,WeatherDisplay:10.37,2013-07-17 19:05:00,
2013-07-17 15:10:00,92.3,44.1,26.95,ESE,117,0.0,0.0,19,0.00,CLR,,0.00,WeatherDisplay:10.37,2013-07-17 19:10:00,
2013-07-17 15:15:00,92.7,44.4,26.95,ESE,110,2.3,0.0,19,0.00,CLR,,0.00,WeatherDisplay:10.37,2013-07-17 19:15:00,
2013-07-17 15:20:00,93.0,48.6,26.95,NE,44,0.0,0.0,22,0.00,CLR,,0.00,WeatherDisplay:10.37,2013-07-17 19:20:00,
2013-07-17 15:25:00,92.7,44.4,26.95,WNW,303,0.0,0.0,19,0.00,CLR,,0.00,WeatherDisplay:10.37,2013-07-17 19:25:00,
2013-07-17 15:30:00,92.5,44.2,26.95,NNE,24,3.5,3.5,19,0.00,CLR,,0.00,WeatherDisplay:10.37,2013-07-17 19:30:00,
2013-07-17 15:35:00,92.3,44.1,26.95,WNW,303,3.5,3.5,19,0.00,CLR,,0.00,WeatherDisplay:10.37,2013-07-17 19:35:00,
2013-07-17 15:40:00,92.3,44.1,26.95,North,3,3.5,3.5,19,0.00,CLR,,0.00,WeatherDisplay:10.37,2013-07-17 19:40:00,
2013-07-17 15:45:00,92.1,43.9,26.95,WNW,303,3.5,3.5,19,0.00,CLR,,0.00,WeatherDisplay:10.37,2013-07-17 19:45:00,
2013-07-17 15:50:00,92.1,43.9,26.95,WNW,303,0.0,0.0,19,0.00,CLR,,0.00,WeatherDisplay:10.37,2013-07-17 19:50:00,
2013-07-17 15:55:00,92.3,44.1,26.95,NW,307,2.2,0.0,19,0.00,CLR,,0.00,WeatherDisplay:10.37,2013-07-17 19:55:00,
2013-07-17 16:00:00,91.8,43.6,26.95,SW,236,2.3,0.0,19,0.00,CLR,,0.00,WeatherDisplay:10.37,2013-07-17 20:00:00,
2013-07-17 16:05:00,91.8,43.6,26.95,WNW,290,0.0,0.0,19,0.00,CLR,,0.00,WeatherDisplay:10.37,2013-07-17 20:05:00,
2013-07-17 16:10:00,92.1,43.9,26.95,ESE,114,2.3,0.0,19,0.00,CLR,,0.00,WeatherDisplay:10.37,2013-07-17 20:10:00,
2013-07-17 16:15:00,92.5,44.2,26.95,West,274,3.5,0.0,19,0.00,CLR,,0.00,WeatherDisplay:10.37,2013-07-17 20:15:00,
2013-07-17 16:20:00,92.7,44.4,26.95,East,84,2.7,0.0,19,0.00,CLR,,0.00,WeatherDisplay:10.37,2013-07-17 20:20:00,
2013-07-17 16:25:00,91.9,43.8,26.95,ENE,67,3.5,3.5,19,0.00,CLR,,0.00,WeatherDisplay:10.37,2013-07-17 20:25:00,
2013-07-17 16:30:00,91.9,43.8,26.95,North,4,0.0,0.0,19,0.00,CLR,,0.00,WeatherDisplay:10.37,2013-07-17 20:30:00,
2013-07-17 16:35:00,93.0,44.7,26.95,ESE,114,0.0,0.0,19,0.00,CLR,,0.00,WeatherDisplay:10.37,2013-07-17 20:35:00,
2013-07-17 16:40:00,92.7,44.4,26.95,North,357,0.0,0.0,19,0.00,CLR,,0.00,WeatherDisplay:10.37,2013-07-17 20:40:00,
2013-07-17 16:45:00,91.9,43.8,26.95,WNW,294,2.3,0.0,19,0.00,CLR,,0.00,WeatherDisplay:10.37,2013-07-17 20:45:00,
2013-07-17 16:50:00,91.9,47.7,26.95,NW,307,0.0,0.0,22,0.00,CLR,,0.00,WeatherDisplay:10.37,2013-07-17 20:50:00,
2013-07-17 16:55:00,91.6,43.5,26.95,NNW,340,3.5,3.5,19,0.00,CLR,,0.00,WeatherDisplay:10.37,2013-07-17 20:55:00,
2013-07-17 17:00:00,91.4,43.3,26.95,North,8,0.0,0.0,19,0.00,CLR,,0.00,WeatherDisplay:10.37,2013-07-17 21:00:00,
2013-07-17 17:05:00,91.2,44.5,26.95,East,96,0.0,0.0,20,0.00,CLR,,0.00,WeatherDisplay:10.37,2013-07-17 21:05:00,
2013-07-17 17:10:00,91.0,44.4,26.95,SW,225,2.3,0.0,20,0.00,CLR,,0.00,WeatherDisplay:10.37,2013-07-17 21:10:00,
2013-07-17 17:15:00,91.0,44.4,26.95,WSW,256,0.0,0.0,20,0.00,CLR,,0.00,WeatherDisplay:10.37,2013-07-17 21:15:00,
2013-07-17 17:20:00,90.9,44.2,26.95,WNW,287,3.5,3.5,20,0.00,CLR,,0.00,WeatherDisplay:10.37,2013-07-17 21:20:00,
2013-07-17 17:25:00,90.9,44.2,26.95,WNW,293,0.0,0.0,20,0.00,CLR,,0.00,WeatherDisplay:10.37,2013-07-17 21:25:00,
2013-07-17 17:30:00,90.7,44.1,26.95,SE,125,0.0,0.0,20,0.00,CLR,,0.00,WeatherDisplay:10.37,2013-07-17 21:30:00,
2013-07-17 17:35:00,90.3,43.8,26.95,NE,47,0.0,0.0,20,0.00,CLR,,0.00,WeatherDisplay:10.37,2013-07-17 21:35:00,
2013-07-17 17:40:00,90.0,43.5,26.95,West,260,2.3,0.0,20,0.00,CLR,,0.00,WeatherDisplay:10.37,2013-07-17 21:40:00,
2013-07-17 17:45:00,89.8,43.4,26.95,North,1,0.0,0.0,20,0.00,CLR,,0.00,WeatherDisplay:10.37,2013-07-17 21:45:00,
2013-07-17 17:50:00,89.8,43.4,26.95,WNW,300,3.5,0.0,20,0.00,CLR,,0.00,WeatherDisplay:10.37,2013-07-17 21:50:00,
2013-07-17 17:55:00,90.1,43.7,26.95,ESE,103,0.0,0.0,20,0.00,CLR,,0.00,WeatherDisplay:10.37,2013-07-17 21:55:00,
2013-07-17 18:00:00,90.0,43.5,26.95,NE,55,0.0,0.0,20,0.00,CLR,,0.00,WeatherDisplay:10.37,2013-07-17 22:00:00,
2013-07-17 18:05:00,89.6,43.2,26.95,SW,226,0.0,0.0,20,0.00,CLR,,0.00,WeatherDisplay:10.37,2013-07-17 22:05:00,
2013-07-17 18:10:00,89.2,42.9,26.95,WSW,239,2.3,2.3,20,0.00,CLR,,0.00,WeatherDisplay:10.37,2013-07-17 22:10:00,
2013-07-17 18:15:00,89.1,42.8,26.95,East,96,0.0,0.0,20,0.00,CLR,,0.00,WeatherDisplay:10.37,2013-07-17 22:15:00,
2013-07-17 18:20:00,88.7,42.5,26.95,East,96,0.0,0.0,20,0.00,CLR,,0.00,WeatherDisplay:10.37,2013-07-17 22:20:00,
2013-07-17 18:25:00,88.5,42.3,26.95,SW,215,3.5,3.5,20,0.00,CLR,,0.00,WeatherDisplay:10.37,2013-07-17 22:25:00,
2013-07-17 18:30:00,88.5,42.3,26.95,East,99,0.0,0.0,20,0.00,CLR,,0.00,WeatherDisplay:10.37,2013-07-17 22:30:00,
2013-07-17 18:35:00,88.5,42.3,26.95,East,84,0.0,0.0,20,0.00,CLR,,0.00,WeatherDisplay:10.37,2013-07-17 22:35:00,
2013-07-17 18:40:00,88.2,42.0,26.95,WNW,298,0.0,0.0,20,0.00,CLR,,0.00,WeatherDisplay:10.37,2013-07-17 22:40:00,
2013-07-17 18:45:00,88.2,42.0,26.95,WNW,301,0.0,0.0,20,0.00,CLR,,0.00,WeatherDisplay:10.37,2013-07-17 22:45:00,
2013-07-17 18:50:00,88.0,45.5,26.95,WNW,301,0.0,0.0,23,0.00,CLR,,0.00,WeatherDisplay:10.37,2013-07-17 22:50:00,
2013-07-17 18:55:00,87.8,45.4,26.95,NW,307,0.0,0.0,23,0.00,CLR,,0.00,WeatherDisplay:10.37,2013-07-17 22:55:00,
2013-07-17 19:00:00,87.6,45.2,26.95,NE,53,2.3,0.0,23,0.00,CLR,,0.00,WeatherDisplay:10.37,2013-07-17 23:00:00,
2013-07-17 19:05:00,87.4,45.1,26.95,NE,42,0.0,0.0,23,0.00,CLR,,0.00,WeatherDisplay:10.37,2013-07-17 23:05:00,
2013-07-17 19:10:00,87.3,44.9,26.95,West,261,0.0,0.0,23,0.00,CLR,,0.00,WeatherDisplay:10.37,2013-07-17 23:10:00,
2013-07-17 19:15:00,87.3,44.9,26.95,NE,51,0.0,0.0,23,0.00,CLR,,0.00,WeatherDisplay:10.37,2013-07-17 23:15:00,
2013-07-17 19:20:00,87.1,44.8,26.95,NNE,18,0.0,0.0,23,0.00,CLR,,0.00,WeatherDisplay:10.37,2013-07-17 23:20:00,
2013-07-17 19:25:00,86.9,44.6,26.95,NNE,18,0.0,0.0,23,0.00,CLR,,0.00,WeatherDisplay:10.37,2013-07-17 23:25:00,
2013-07-17 19:30:00,86.5,44.3,26.95,NNE,18,0.0,0.0,23,0.00,CLR,,0.00,WeatherDisplay:10.37,2013-07-17 23:30:00,
2013-07-17 19:35:00,86.2,44.0,26.95,North,0,0.0,0.0,23,0.00,CLR,,0.00,WeatherDisplay:10.37,2013-07-17 23:35:00,
2013-07-17 19:40:00,85.6,43.6,26.95,North,0,0.0,0.0,23,0.00,CLR,,0.00,WeatherDisplay:10.37,2013-07-17 23:40:00,
2013-07-17 19:45:00,85.3,43.3,26.95,North,0,0.0,0.0,23,0.00,CLR,,0.00,WeatherDisplay:10.37,2013-07-17 23:45:00,
2013-07-17 19:50:00,84.9,43.0,26.95,ENE,58,3.5,0.0,23,0.00,CLR,,0.00,WeatherDisplay:10.37,2013-07-17 23:50:00,
2013-07-17 19:55:00,84.7,42.8,26.95,ENE,58,0.0,0.0,23,0.00,CLR,,0.00,WeatherDisplay:10.37,2013-07-17 23:55:00,
2013-07-17 20:00:00,84.6,42.7,26.95,ENE,58,0.0,0.0,23,0.00,CLR,,0.00,WeatherDisplay:10.37,2013-07-18 00:00:00,
2013-07-17 20:05:00,84.6,42.7,26.95,West,279,3.5,0.0,23,0.00,CLR,,0.00,WeatherDisplay:10.37,2013-07-18 00:05:00,
2013-07-17 20:10:00,84.6,42.7,26.95,NW,312,0.0,0.0,23,0.00,CLR,,0.00,WeatherDisplay:10.37,2013-07-18 00:10:00,
2013-07-17 20:15:00,84.4,42.5,26.95,NW,312,0.0,0.0,23,0.00,CLR,,0.00,WeatherDisplay:10.37,2013-07-18 00:15:00,
2013-07-17 20:20:00,84.2,42.4,26.95,NW,312,0.0,0.0,23,0.00,CLR,,0.00,WeatherDisplay:10.37,2013-07-18 00:20:00,
2013-07-17 20:25:00,84.0,43.3,26.95,East,85,0.0,0.0,24,0.00,CLR,,0.00,WeatherDisplay:10.37,2013-07-18 00:25:00,
2013-07-17 20:30:00,83.8,43.2,26.95,East,85,0.0,0.0,24,0.00,CLR,,0.00,WeatherDisplay:10.37,2013-07-18 00:30:00,
2013-07-17 20:35:00,83.7,43.0,26.95,NNW,344,0.0,0.0,24,0.00,CLR,,0.00,WeatherDisplay:10.37,2013-07-18 00:35:00,
2013-07-17 20:40:00,83.5,42.9,26.95,NNW,344,0.0,0.0,24,0.00,CLR,,0.00,WeatherDisplay:10.37,2013-07-18 00:40:00,
2013-07-17 20:45:00,83.3,42.7,26.95,NNW,344,0.0,0.0,24,0.00,CLR,,0.00,WeatherDisplay:10.37,2013-07-18 00:45:00,
2013-07-17 20:50:00,83.1,42.6,26.95,SSE,164,0.0,0.0,24,0.00,CLR,,0.00,WeatherDisplay:10.37,2013-07-18 00:50:00,
2013-07-17 20:55:00,82.9,42.4,26.95,SSE,164,0.0,0.0,24,0.00,CLR,,0.00,WeatherDisplay:10.37,2013-07-18 00:55:00,
2013-07-17 21:00:00,82.9,42.4,26.95,NW,326,2.3,0.0,24,0.00,CLR,,0.00,WeatherDisplay:10.37,2013-07-18 01:00:00,
2013-07-17 21:05:00,82.8,42.3,26.95,NE,38,0.0,0.0,24,0.00,CLR,,0.00,WeatherDisplay:10.37,2013-07-18 01:05:00,
2013-07-17 21:10:00,82.8,42.3,26.95,SSW,196,0.0,0.0,24,0.00,CLR,,0.00,WeatherDisplay:10.37,2013-07-18 01:10:00,
2013-07-17 21:15:00,82.8,42.3,26.95,SSW,201,0.0,0.0,24,0.00,CLR,,0.00,WeatherDisplay:10.37,2013-07-18 01:15:00,
2013-07-17 21:20:00,82.6,42.1,26.95,South,180,0.0,0.0,24,0.00,CLR,,0.00,WeatherDisplay:10.37,2013-07-18 01:20:00,
2013-07-17 21:25:00,82.6,42.1,26.95,North,6,0.0,0.0,24,0.00,CLR,,0.00,WeatherDisplay:10.37,2013-07-18 01:25:00,
2013-07-17 21:30:00,82.6,42.1,26.95,ENE,58,0.0,0.0,24,0.00,CLR,,0.00,WeatherDisplay:10.37,2013-07-18 01:30:00,
2013-07-17 21:35:00,82.6,42.1,26.95,WNW,292,0.0,0.0,24,0.00,CLR,,0.00,WeatherDisplay:10.37,2013-07-18 01:35:00,
2013-07-17 21:40:00,82.8,42.3,26.95,WNW,292,0.0,0.0,24,0.00,CLR,,0.00,WeatherDisplay:10.37,2013-07-18 01:40:00,
2013-07-17 21:45:00,82.8,42.3,26.95,NW,311,0.0,0.0,24,0.00,CLR,,0.00,WeatherDisplay:10.37,2013-07-18 01:45:00,
2013-07-17 21:50:00,82.9,42.4,26.95,NW,320,0.0,0.0,24,0.00,CLR,,0.00,WeatherDisplay:10.37,2013-07-18 01:50:00,
2013-07-17 21:55:00,82.8,42.3,26.95,WNW,301,0.0,0.0,24,0.00,CLR,,0.00,WeatherDisplay:10.37,2013-07-18 01:55:00,
2013-07-17 22:00:00,82.8,42.3,26.95,WNW,301,0.0,0.0,24,0.00,CLR,,0.00,WeatherDisplay:10.37,2013-07-18 02:00:00,
2013-07-17 22:05:00,82.6,42.1,26.95,WNW,301,0.0,0.0,24,0.00,CLR,,0.00,WeatherDisplay:10.37,2013-07-18 02:05:00,
2013-07-17 22:10:00,82.6,42.1,26.95,NW,310,0.0,0.0,24,0.00,CLR,,0.00,WeatherDisplay:10.37,2013-07-18 02:10:00,
2013-07-17 22:15:00,82.8,42.3,26.95,NW,310,0.0,0.0,24,0.00,CLR,,0.00,WeatherDisplay:10.37,2013-07-18 02:15:00,
2013-07-17 22:20:00,82.8,42.3,26.95,NW,310,0.0,0.0,24,0.00,CLR,,0.00,WeatherDisplay:10.37,2013-07-18 02:20:00,
2013-07-17 22:25:00,82.6,42.1,26.95,North,11,0.0,0.0,24,0.00,CLR,,0.00,WeatherDisplay:10.37,2013-07-18 02:25:00,
2013-07-17 22:30:00,82.4,42.0,26.95,NNE,12,0.0,0.0,24,0.00,CLR,,0.00,WeatherDisplay:10.37,2013-07-18 02:30:00,
2013-07-17 22:35:00,82.4,42.0,26.95,NNE,13,0.0,0.0,24,0.00,CLR,,0.00,WeatherDisplay:10.37,2013-07-18 02:35:00,
2013-07-17 22:40:00,82.2,41.8,26.95,WSW,258,2.3,0.0,24,0.00,CLR,,0.00,WeatherDisplay:10.37,2013-07-18 02:40:00,
2013-07-17 22:45:00,82.2,41.8,26.95,NNE,14,0.0,0.0,24,0.00,CLR,,0.00,WeatherDisplay:10.37,2013-07-18 02:45:00,
2013-07-17 22:50:00,82.0,41.7,26.95,NE,56,0.0,0.0,24,0.00,CLR,,0.00,WeatherDisplay:10.37,2013-07-18 02:50:00,
2013-07-17 22:55:00,82.0,41.7,26.95,West,265,3.5,0.0,24,0.00,CLR,,0.00,WeatherDisplay:10.37,2013-07-18 02:55:00,
2013-07-17 23:00:00,81.9,41.5,26.95,West,265,0.0,0.0,24,0.00,CLR,,0.00,WeatherDisplay:10.37,2013-07-18 03:00:00,
2013-07-17 23:05:00,81.9,41.5,26.95,West,265,0.0,0.0,24,0.00,CLR,,0.00,WeatherDisplay:10.37,2013-07-18 03:05:00,
2013-07-17 23:10:00,81.7,41.4,26.95,ENE,58,0.0,0.0,24,0.00,CLR,,0.00,WeatherDisplay:10.37,2013-07-18 03:10:00,
2013-07-17 23:15:00,81.5,41.2,26.95,ENE,58,0.0,0.0,24,0.00,CLR,,0.00,WeatherDisplay:10.37,2013-07-18 03:15:00,
2013-07-17 23:20:00,81.3,41.1,26.95,NE,46,0.0,0.0,24,0.00,CLR,,0.00,WeatherDisplay:10.37,2013-07-18 03:20:00,
2013-07-17 23:25:00,81.0,43.8,26.95,NE,46,0.0,0.0,27,0.00,CLR,,0.00,WeatherDisplay:10.37,2013-07-18 03:25:00,
2013-07-17 23:30:00,81.0,43.8,26.95,ENE,74,0.0,0.0,27,0.00,CLR,,0.00,WeatherDisplay:10.37,2013-07-18 03:30:00,
2013-07-17 23:35:00,80.8,43.7,26.95,NNE,21,0.0,0.0,27,0.00,CLR,,0.00,WeatherDisplay:10.37,2013-07-18 03:35:00,
2013-07-17 23:40:00,80.8,45.6,26.95,NNW,348,2.3,0.0,29,0.00,CLR,,0.00,WeatherDisplay:10.37,2013-07-18 03:40:00,
2013-07-17 23:45:00,80.6,45.4,26.95,WNW,298,2.3,0.0,29,0.00,CLR,,0.00,WeatherDisplay:10.37,2013-07-18 03:45:00,
2013-07-17 23:50:00,80.6,45.4,26.95,SSE,164,3.5,0.0,29,0.00,CLR,,0.00,WeatherDisplay:10.37,2013-07-18 03:50:00,
2013-07-17 23:55:00,80.6,45.4,26.95,ENE,58,2.3,0.0,29,0.00,CLR,,0.00,WeatherDisplay:10.37,2013-07-18 03:55:00,